Overview Statistics Trail Chart Weather Telemetry Raw packets
 

This is the latest recevied weather packets stored in our database for station/object Krozingen. If no packets are shown the sender has not sent any weather packets the latest 10 day(s).

<< 1 2 3 4 5 >>
Time Temp. Humidity Pressure Rain* Wind** Luminosity Snow
1788530531 31.67° C 43% 1015.2 hPa 0 mm - - -
1788528730 31.11° C 44% 1015.5 hPa 0 mm - - -
1788526930 31.11° C 46% 1015.9 hPa 0 mm - - -
1788525130 31.11° C 44% 1016.4 hPa 0 mm - - -
1788523331 30° C 46% 1016.7 hPa 0 mm - - -
1788521530 30° C 47% 1016.9 hPa 0 mm - - -
1788519731 29.44° C 48% 1017.3 hPa 0 mm - - -
1788517930 28.33° C 46% 1017.7 hPa 0 mm - - -
1788516130 28.33° C 47% 1018 hPa 0 mm - - -
1788514330 27.78° C 47% 1018.3 hPa 0 mm - - -
1788512530 26.67° C 52% 1018.4 hPa 0 mm - - -
1788510730 25.56° C 53% 1018.7 hPa 0 mm - - -
1788508931 23.89° C 60% 1018.8 hPa 0 mm - - -
1788507130 23.33° C 61% 1019 hPa 0 mm - - -
1788505329 21.11° C 67% 1019.3 hPa 0 mm - - -
1788503529 21.11° C 65% 1019.6 hPa 0 mm - - -
1788501738 18.33° C 73% 1019.8 hPa 0 mm - - -
1788499929 16.11° C 80% 1019.9 hPa 0 mm - - -
1788498129 16.11° C 80% 1019.9 hPa 0 mm - - -
1788496329 15.56° C 81% 1019.9 hPa 0 mm - - -
1788494531 16.11° C 79% 1020.3 hPa 0 mm - - -
1788492730 16.67° C 78% 1020.5 hPa 0 mm - - -
1788490929 17.22° C 75% 1020.5 hPa 0 mm - - -
1788489130 17.22° C 75% 1020.8 hPa 0 mm - - -
1788487330 17.78° C 73% 1020.9 hPa 0 mm - - -

* Rain since midnight (hover to see other rain measurements)
** Current wind speed in m/s (hover to see current wind gust speed)